User: anonymous   Login
Location: Unspecified
(0.0000°N, 0.0000°E)
Time: 04:11:53
(UTC+00:00)
Language:

STARLINK-5175 - Orbit

View from above orbital plane
View from above orbital plane
View from above satellite
View from above satellite

Ground track
Ground track

The orbit is defined by the following mean orbital elements,

1 54079U          26145.61253523 +.00000000 +00000-0 +95057-4 0 00003
2 54079  53.2115 349.0228 0001339  89.5408 270.5738 15.08838179    04
Epoch (UTC): 25 May 2026 14:42:03
Eccentricity: 0.0001339
inclination: 53.2115°
perigee height: 539 km
apogee height: 541 km
right ascension of ascending node: 349.0228°
argument of perigee: 89.5408°
revolutions per day: 15.08838179
mean anomaly at epoch: 270.5738°

The dashed part of the orbit path shows where the satellite is in the earth's shadow,  

DLR